{"data":{"norad_id":63274,"intl_designator":"2025-053K","name":"STARLINK-11615 [DTC]","alt_names":[],"object_type":"PAYLOAD","status":"ACTIVE","operator":null,"country":"US","launch_date":"2025-03-15","launch_site_code":"AFETR","launch_vehicle":null,"mission":null,"orbit_class":"UNKNOWN","rcs_meters":null,"size_class":null,"mass_kg":null,"dimensions":null,"purposes":["comms"],"wikipedia_slug":null,"has_3d_model":false,"image_url":null,"decayed_at":null,"tle_current":{"epoch":"2026-09-20T22:00:03.000096Z","epoch_age_seconds":122804,"freshness":"FRESH","line1":"1 63274U 25053K   26263.91670139 -.00167319  00000+0 -13218-2 0  9997","line2":"2 63274  43.0007  15.5780 0001859 265.9604  49.9153 15.70928913  5932","mean_motion":15.70928913,"eccentricity":0.0001859,"inclination_deg":43.0007,"raan_deg":15.578,"arg_perigee_deg":265.9604,"mean_anomaly_deg":49.9153,"bstar":-0.0013218,"rev_number":593,"period_min":91.665510010255,"perigee_km":354.98902270083,"apogee_km":357.49286442025,"semimajor_km":6734.3779435605,"source":"CELESTRAK","updated_at":"2026-09-21T09:00:34.964060Z"}}}